Regional Weather Roundup
Issued by NWS

Home | Current Version | Previous Version | Graphics & Text | Print | Product List | Glossary On
Versions: 1 2 3 4 5 6 7 8 9 10 11 12 13 14 15 16 17 18 19 20 21 22 23 24 25 26 27 28 29 30 31 32 33 34 35 36 37 38 39 40 41 42 43 44 45 46 47 48 49 50
000
ASUS43 KLMK 040202
RWRKY
KENTUCKY REGIONAL WEATHER ROUNDUP
NATIONAL WEATHER SERVICE LOUISVILLE KY
1000 PM EDT THU SEP 03 2015

NOTE "FAIR" INDICATES FEW OR NO CLOUDS BELOW 12,000 FEET
WITH NO SIGNIFICANT WEATHER AND/OR OBSTRUCTIONS TO VISIBILITY.

KYZ001>023-026-027-061>063-070>075-040300-
WESTERN AND SOUTH CENTRAL KENTUCKY

CITY           SKY/WX    TMP DP  RH WIND       PRES   REMARKS
PADUCAH        CLEAR     74  70  87 CALM      29.94R
HENDERSON      CLEAR     73  70  88 CALM      29.94R
OWENSBORO      CLEAR     82  69  64 SE3       29.96R
HOPKINSVILLE   CLEAR     80  69  68 NW1       29.96R
BOWLING GREEN  CLEAR     77  74  90 CALM      29.97R
GLASGOW        CLEAR     72  67  83 CALM      29.98R
$$

KYZ024-025-028>034-038-045-046-053-040300-
NORTH CENTRAL KENTUCKY

CITY           SKY/WX    TMP DP  RH WIND       PRES   REMARKS
LOUISVILLE/SDF CLEAR     85  64  49 W3        29.95R
LOUISVILLE/LOU CLEAR     80  67  64 CALM      29.97R
FORT KNOX      CLEAR     73  67  84 CALM      29.96R
$$

KYZ035>037-039>044-047>052-055>060-089>105-040300-
NORTHEAST KENTUCKY

CITY           SKY/WX    TMP DP  RH WIND       PRES   REMARKS
LEXINGTON      CLEAR     76  68  76 CALM      29.99R
COVINGTON      CLEAR     75  66  73 CALM      29.97R
FRANKFORT      CLEAR     74  67  78 CALM      29.97R
$$

KYZ054-064>069-076>088-106>120-040300-
SOUTHEAST KENTUCKY

CITY           SKY/WX    TMP DP  RH WIND       PRES   REMARKS
JACKSON        CLEAR     77  66  68 CALM      30.01R
LONDON         CLEAR     74  66  76 CALM      30.01R
SOMERSET       NOT AVBL
MIDDLESBORO    CLEAR     72  67  86 CALM      30.02R
MONTICELLO     CLEAR     69  68  97 CALM      30.02R
$$




USA.gov is the U.S. government's official web portal to all federal, state and local government web resources and services.